Wind_Speed
25 24 23 22 21 19 20 19 19 19 20 19 19 18 17 15 12 9 9 7 9 8 8 5 2 1 1 3 4 2 4 4 2 5 9 8 4 4 5 7 9 9 11 11 9
26 26 24 23 22 21 20 20 21 19 20 20 19 17 16 14 12 9 7 7 8 6 4 2 4 2 4 3 2 2 2 2 2 9 10 8 6 2 5 6 6 7 7 8 9
25 25 25 24 23 22 22 21 22 20 20 20 18 17 16 13 11 6 6 6 5 3 2 3 5 3 3 5 4 4 4 3 3 8 7 8 8 5 1 4 8 9 10 11 8
29 28 27 27 26 25 24 24 23 22 20 19 18 16 15 11 6 6 5 4 2 1 5 7 8 7 7 5 3 1 2 6 5 8 3 6 5 3 3 1 3 6 10 9 7
31 30 29 28 28 29 28 27 25 23 20 19 17 15 14 11 8 5 3 2 2 5 8 8 8 8 6 2 4 3 8 1 2 4 1 2 4 4 1 4 5 7 8 13 13
31 31 30 30 29 30 30 29 28 24 21 18 17 15 13 10 7 5 2 1 5 9 9 8 8 8 6 3 1 4 3 3 2 5 1 4 5 4 5 9 6 9 19 15 22
27 27 29 29 31 30 29 29 28 25 22 18 17 15 13 11 8 8 6 3 6 11 9 8 8 6 7 4 4 4 2 5 2 2 2 3 4 4 3 4 2 6 14 23 15
25 22 22 25 27 29 30 29 27 26 23 19 18 16 12 10 11 12 9 6 7 9 8 8 6 5 5 6 6 3 2 2 2 4 2 3 3 3 0 3 2 6 12 17 19
25 22 18 17 19 23 26 29 28 27 23 21 19 17 13 12 15 16 12 9 10 12 10 10 8 6 9 7 2 2 1 3 5 1 1 1 3 2 1 3 3 7 11 14 16
29 25 20 16 16 18 21 25 26 26 22 23 20 17 16 15 20 19 16 13 11 12 12 12 11 9 9 6 3 3 5 5 5 3 4 7 9 4 1 2 3 9 11 12 15
33 29 25 23 23 22 20 20 22 25 24 23 16 10 13 18 21 21 18 15 12 10 10 8 8 10 10 7 4 3 2 1 2 7 11 12 12 11 5 5 7 10 13 13 15
37 36 34 33 32 29 29 24 24 24 27 24 23 24 20 20 25 25 22 20 17 11 9 5 3 7 11 9 8 5 4 5 4 5 13 13 10 11 13 6 3 10 12 14 15
43 38 35 32 31 29 25 25 26 28 26 27 24 26 22 24 28 30 26 21 17 14 10 6 6 8 8 10 10 8 6 8 9 6 7 9 7 7 9 10 9 9 14 17 12
47 42 37 36 31 25 22 18 18 20 16 22 16 27 25 30 31 31 27 22 18 17 12 9 10 8 7 11 12 10 5 5 4 3 2 1 2 3 6 7 12 13 15 17 15
52 46 41 39 31 26 23 18 14 10 4 7 17 20 23 33 23 35 31 26 22 19 16 9 9 8 9 11 12 13 8 5 3 4 4 4 3 4 3 6 9 14 16 18 19
56 51 44 43 35 27 25 18 13 8 8 5 8 16 23 35 29 34 35 29 25 20 17 13 7 7 8 13 10 12 12 7 5 6 3 7 7 6 6 7 9 10 16 18 21
60 56 50 45 39 31 27 20 13 13 7 10 10 14 21 34 32 32 39 37 31 25 23 18 15 11 11 8 11 12 9 2 1 2 2 5 5 8 8 13 15 14 15 16 22
60 59 55 50 43 35 31 23 16 15 33 6 8 11 18 29 31 26 39 38 34 27 20 18 8 15 13 15 11 13 11 6 3 3 2 4 5 5 15 13 14 11 15 12 17
42 54 59 55 49 40 36 31 25 26 13 29 28 10 19 26 29 25 34 41 37 32 20 14 11 8 12 15 13 10 11 9 4 1 2 3 7 11 4 7 6 4 10 12 13
41 50 60 58 51 43 43 48 42 25 27 15 23 11 16 25 28 37 24 34 38 33 28 17 8 11 14 16 15 10 6 4 4 2 2 3 5 9 8 7 1 6 4 2 5
40 47 63 55 41 44 51 59 47 37 28 30 16 23 17 21 31 28 31 18 31 35 29 27 16 10 12 15 12 11 14 9 5 7 3 2 5 6 9 12 4 5 7 6 6
45 50 64 49 46 53 65 59 43 40 32 33 25 19 25 18 23 32 32 36 16 33 35 28 15 20 21 17 16 16 16 14 10 7 9 6 12 19 6 10 9 10 8 9 7
47 44 38 56 51 50 66 60 42 35 40 38 33 20 19 14 15 23 30 26 32 23 35 32 25 16 12 16 18 20 21 18 17 15 13 7 10 6 9 9 14 12 11 13 12
52 40 34 39 58 64 50 44 50 45 39 41 33 31 16 13 13 10 23 24 25 20 25 35 30 23 23 25 18 17 22 22 19 15 19 24 25 16 14 12 14 16 16 14 15
58 41 38 54 58 65 50 52 55 51 50 41 43 39 34 20 13 15 18 21 24 27 26 29 27 26 28 28 26 25 21 17 25 21 21 20 22 19 18 15 15 16 18 15 14
63 47 51 39 62 68 50 50 50 60 51 53 48 46 39 33 18 9 16 20 21 25 30 33 28 26 27 25 26 24 27 24 20 21 25 26 30 25 25 21 17 15 12 15 16
67 63 49 61 52 57 71 48 42 43 55 40 49 41 37 35 30 24 12 8 11 17 25 31 32 27 22 23 21 24 28 25 24 26 29 33 34 26 23 22 22 22 19 19 20
Wind_Direction
268 268 269 270 271 274 280 288 295 303 311 316 320 327 327 323 317 314 308 308 329 340 350 13 281 140 221 243 262 225 243 254 350 5 340 342 292 267 259 263 274 256 258 266 257
269 267 266 266 267 268 273 281 290 298 306 311 315 322 324 320 311 309 309 313 330 345 0 20 202 171 217 292 273 274 285 292 19 345 339 348 345 340 302 299 287 276 265 243 259
263 266 266 265 263 265 268 274 283 292 300 305 310 318 318 315 305 298 310 318 329 354 47 117 158 150 49 54 67 51 30 296 301 309 320 340 333 316 317 287 299 305 285 274 231
259 259 261 265 265 267 268 272 277 286 292 299 303 310 312 305 292 298 303 312 320 123 118 140 140 121 97 86 39 38 342 313 293 281 273 323 358 24 338 342 38 355 255 208 179
258 258 257 258 263 265 268 272 274 279 285 290 294 301 303 294 281 280 296 312 204 165 148 153 153 151 156 153 305 295 335 205 273 216 138 11 29 35 266 153 152 25 172 172 142
260 258 257 257 257 260 264 268 271 272 278 283 287 292 295 283 258 241 193 169 186 170 163 172 176 185 194 239 309 306 275 212 279 175 160 90 41 97 104 143 108 60 105 115 126
259 260 260 257 258 259 260 262 265 269 270 274 279 282 286 260 230 198 174 151 185 176 175 187 194 185 205 252 301 288 324 2 135 151 153 107 41 91 100 157 134 54 142 145 154
252 254 258 261 259 260 260 260 261 263 265 267 270 275 281 249 206 187 178 171 171 186 196 219 228 222 274 287 322 318 159 94 291 220 115 112 63 37 247 159 169 146 108 117 119
246 244 247 255 267 266 265 260 260 261 260 260 263 267 265 228 200 189 185 183 183 196 217 231 250 250 248 281 308 16 56 0 156 178 232 245 10 48 358 198 191 134 133 132 136
242 238 233 242 264 280 279 269 261 263 257 259 259 260 246 213 205 189 189 187 196 208 231 251 264 262 238 242 169 123 60 76 124 189 267 286 281 296 152 86 155 154 164 151 140
240 239 237 245 255 267 278 293 279 269 256 248 235 213 243 214 204 192 192 194 203 215 233 237 239 242 189 199 167 179 233 351 234 253 281 284 282 278 269 193 182 165 163 156 146
242 247 247 253 254 258 265 283 292 279 266 254 241 236 228 213 201 193 193 194 202 199 198 198 197 160 184 195 188 199 245 290 318 279 291 275 268 252 248 261 229 176 160 159 156
240 243 249 252 252 254 266 273 281 281 277 255 249 239 219 218 204 196 195 194 202 194 196 194 163 171 201 211 211 220 265 306 316 303 310 257 267 252 255 242 218 214 189 189 179
239 240 243 250 255 253 254 263 273 270 284 267 263 242 220 215 210 198 197 197 197 199 197 209 195 191 216 223 228 228 278 311 292 257 267 137 288 256 260 261 239 211 205 194 188
235 235 238 243 248 251 245 247 262 253 287 246 229 220 209 210 219 196 195 198 201 195 196 199 194 208 232 219 240 241 284 293 292 232 212 219 222 269 269 288 280 244 222 203 194
232 231 231 237 239 243 241 232 220 222 245 245 227 213 205 201 206 197 194 198 202 204 205 205 218 232 242 232 249 238 280 270 269 220 196 207 217 261 247 320 299 265 246 229 214
226 227 227 230 231 232 233 213 201 217 227 230 229 221 209 197 197 198 195 196 200 201 215 224 228 240 232 228 220 231 248 253 204 176 188 202 214 251 295 314 304 290 248 247 240
221 221 222 225 225 219 217 197 218 241 222 146 223 219 213 205 199 198 202 199 206 208 211 215 238 237 230 232 219 233 234 212 205 201 188 200 226 263 299 310 306 280 230 241 240
234 219 215 218 220 212 202 201 222 219 204 236 245 234 214 209 201 198 206 209 208 204 203 200 224 217 220 212 204 208 210 223 192 207 246 232 260 302 56 337 358 263 247 252 237
220 228 212 211 213 204 199 220 224 216 213 228 225 220 219 215 207 205 202 218 215 214 214 219 211 221 204 205 208 217 236 197 212 177 247 259 255 280 311 345 2 61 65 215 214
211 228 217 208 198 191 205 222 220 219 205 220 230 218 232 223 213 212 214 211 213 212 214 222 224 214 199 208 215 234 226 226 246 245 224 247 255 258 291 311 287 354 343 348 352
212 219 225 215 187 199 213 218 214 214 206 211 225 217 221 224 222 217 219 220 211 214 214 219 230 232 241 246 255 251 241 242 236 240 221 241 270 281 304 277 282 308 303 318 294
208 215 217 218 198 205 215 217 217 213 211 212 222 215 216 216 215 224 223 222 222 217 214 215 223 225 234 235 243 247 252 257 252 246 234 220 243 240 288 280 290 295 295 298 288
202 196 195 198 211 210 212 215 212 214 213 208 217 212 213 214 197 214 222 223 214 216 219 221 231 235 232 240 241 250 258 253 236 229 245 250 274 271 285 278 281 265 270 279 278
201 202 190 195 207 213 212 219 212 214 213 210 220 223 224 233 224 215 220 221 221 222 221 219 227 237 250 251 254 245 248 256 234 250 250 280 275 278 281 285 294 275 261 265 268
198 200 201 209 205 211 212 217 220 215 217 217 222 227 222 224 215 216 215 225 229 230 225 230 234 244 249 250 249 242 250 250 248 257 265 273 275 279 277 274 272 272 273 258 256
204 207 204 203 204 208 214 214 216 218 219 224 226 225 227 226 225 229 220 228 226 222 228 232 232 232 230 241 245 242 238 247 249 258 266 272 284 283 271 265 265 268 276 277 258
Height
3147 3148 3148 3148 3148 3148 3148 3148 3148 3148 3147 3146 3145 3143 3140 3138 3136 3135 3134 3134 3132 3130 3129 3129 3130 3130 3130 3130 3130 3131 3132 3131 3132 3131 3131 3129 3128 3129 3129 3129 3128 3127 3127 3128 3128
3143 3144 3144 3144 3144 3144 3144 3144 3145 3144 3144 3144 3142 3140 3138 3136 3134 3133 3132 3131 3130 3129 3129 3129 3129 3129 3130 3131 3131 3132 3132 3131 3132 3132 3131 3129 3128 3128 3128 3127 3126 3125 3125 3125 3125
3136 3139 3140 3140 3139 3140 3140 3139 3140 3140 3141 3140 3139 3138 3135 3133 3133 3131 3130 3129 3128 3129 3128 3128 3130 3130 3131 3131 3131 3131 3131 3131 3132 3131 3130 3129 3127 3126 3127 3127 3125 3123 3123 3122 3122
3130 3132 3133 3135 3135 3136 3135 3135 3135 3136 3136 3136 3136 3135 3133 3131 3132 3129 3128 3127 3127 3128 3127 3129 3130 3131 3131 3131 3130 3130 3130 3130 3130 3130 3129 3128 3127 3126 3126 3126 3124 3120 3117 3119 3121
3124 3125 3126 3127 3129 3131 3131 3131 3131 3131 3131 3132 3132 3131 3130 3129 3128 3127 3126 3126 3126 3126 3127 3129 3130 3130 3130 3130 3130 3129 3129 3129 3129 3128 3128 3128 3127 3126 3123 3124 3123 3119 3116 3118 3121
3118 3119 3120 3121 3121 3123 3125 3124 3126 3126 3127 3128 3128 3128 3126 3127 3125 3125 3125 3124 3125 3126 3127 3128 3130 3130 3130 3129 3129 3129 3128 3128 3128 3128 3128 3128 3127 3125 3126 3125 3124 3122 3119 3119 3122
3112 3113 3115 3115 3117 3117 3117 3118 3120 3121 3122 3123 3124 3124 3123 3123 3122 3123 3124 3124 3124 3125 3127 3128 3129 3130 3130 3129 3129 3128 3129 3128 3129 3128 3129 3129 3129 3127 3127 3126 3125 3124 3123 3122 3124
3107 3108 3109 3110 3110 3111 3111 3112 3113 3115 3117 3118 3119 3120 3119 3119 3119 3121 3123 3123 3123 3125 3126 3127 3129 3129 3129 3129 3128 3128 3130 3130 3130 3129 3130 3130 3130 3129 3128 3127 3127 3127 3126 3127 3127
3103 3103 3104 3105 3106 3106 3106 3107 3107 3110 3112 3113 3115 3116 3115 3115 3116 3118 3120 3122 3123 3124 3125 3126 3127 3127 3128 3128 3129 3127 3128 3128 3128 3128 3129 3130 3130 3130 3129 3128 3128 3129 3130 3130 3131
3096 3099 3099 3100 3101 3102 3102 3102 3102 3105 3106 3109 3109 3113 3111 3111 3112 3114 3117 3120 3121 3122 3124 3125 3125 3125 3125 3127 3128 3127 3128 3128 3128 3130 3129 3129 3130 3129 3130 3129 3128 3130 3131 3132 3133
3090 3092 3094 3094 3095 3098 3099 3101 3102 3101 3100 3102 3104 3105 3106 3107 3109 3112 3114 3117 3119 3120 3122 3122 3122 3122 3123 3126 3126 3127 3127 3128 3128 3128 3127 3127 3127 3128 3129 3130 3130 3129 3132 3133 3134
3083 3087 3088 3088 3091 3092 3095 3096 3097 3095 3092 3094 3097 3098 3101 3103 3105 3107 3111 3114 3117 3118 3120 3121 3119 3119 3122 3124 3125 3125 3126 3127 3126 3126 3125 3124 3124 3126 3127 3129 3130 3132 3133 3134 3134
3075 3079 3082 3083 3085 3089 3090 3090 3093 3090 3088 3088 3090 3091 3095 3098 3100 3101 3106 3110 3114 3116 3117 3118 3119 3119 3121 3123 3123 3123 3125 3124 3124 3123 3122 3122 3122 3123 3124 3126 3129 3130 3132 3134 3134
3066 3071 3075 3077 3083 3084 3085 3088 3089 3088 3086 3084 3082 3084 3089 3091 3093 3098 3102 3108 3110 3113 3115 3117 3117 3118 3119 3120 3123 3121 3122 3122 3121 3122 3121 3121 3122 3121 3122 3124 3125 3128 3129 3131 3132
3054 3061 3067 3070 3075 3079 3081 3083 3087 3087 3086 3076 3074 3077 3079 3084 3088 3089 3097 3102 3106 3108 3113 3114 3114 3115 3116 3118 3121 3122 3121 3121 3120 3120 3121 3121 3123 3121 3121 3122 3122 3124 3126 3128 3129
3040 3050 3057 3061 3069 3074 3076 3079 3084 3088 3075 3071 3070 3071 3075 3078 3084 3087 3090 3097 3103 3106 3108 3110 3111 3112 3113 3114 3117 3119 3119 3119 3118 3119 3120 3119 3121 3118 3119 3119 3119 3119 3121 3123 3126
3024 3036 3045 3051 3060 3067 3069 3075 3080 3075 3068 3067 3068 3068 3071 3076 3080 3083 3083 3088 3094 3100 3102 3106 3108 3109 3111 3112 3113 3117 3118 3117 3118 3118 3116 3117 3118 3116 3116 3115 3114 3114 3115 3117 3120
3006 3018 3032 3041 3051 3058 3061 3069 3065 3057 3064 3061 3066 3065 3067 3074 3079 3078 3082 3083 3090 3095 3099 3102 3105 3105 3106 3109 3111 3112 3115 3114 3116 3116 3114 3114 3113 3113 3113 3112 3110 3108 3110 3111 3112
2998 3002 3014 3027 3039 3048 3052 3055 3044 3051 3057 3060 3066 3062 3064 3071 3077 3075 3080 3079 3085 3090 3096 3099 3101 3101 3102 3105 3108 3109 3111 3112 3111 3112 3113 3110 3109 3109 3109 3109 3107 3105 3106 3107 3107
2987 2993 2999 3013 3026 3036 3041 3034 3036 3043 3053 3055 3057 3059 3060 3065 3070 3073 3075 3077 3080 3087 3093 3097 3098 3098 3100 3102 3104 3106 3108 3110 3109 3111 3111 3107 3106 3106 3106 3107 3106 3105 3105 3105 3104
2978 2983 2989 2999 3015 3023 3020 3015 3026 3037 3046 3049 3051 3054 3057 3059 3064 3067 3070 3073 3076 3083 3089 3093 3096 3098 3098 3099 3101 3103 3103 3106 3107 3107 3106 3105 3103 3103 3103 3104 3104 3104 3104 3103 3102
2967 2970 2979 2992 3003 3004 3002 3007 3018 3027 3040 3042 3047 3051 3054 3056 3059 3063 3065 3069 3073 3078 3083 3089 3091 3092 3094 3095 3097 3097 3099 3101 3102 3103 3101 3101 3099 3100 3100 3100 3101 3101 3101 3101 3101
2955 2963 2967 2981 2991 2992 2994 3000 3012 3023 3029 3035 3041 3046 3050 3052 3056 3058 3061 3066 3070 3073 3077 3084 3086 3088 3090 3092 3091 3092 3094 3096 3096 3096 3096 3098 3097 3095 3097 3098 3097 3097 3097 3097 3098
2948 2954 2958 2967 2982 2985 2991 2992 3001 3012 3022 3027 3034 3040 3045 3048 3050 3053 3056 3061 3065 3069 3074 3079 3080 3081 3082 3084 3088 3088 3089 3090 3091 3091 3091 3089 3090 3092 3093 3093 3093 3093 3093 3093 3093
2933 2937 2946 2944 2963 2975 2984 2985 2990 3000 3012 3021 3025 3032 3040 3045 3048 3050 3052 3057 3061 3064 3068 3073 3074 3076 3078 3080 3081 3083 3084 3084 3085 3086 3085 3086 3085 3087 3088 3089 3088 3087 3087 3088 3088
2917 2926 2941 2944 2955 2964 2973 2977 2981 2994 3003 3008 3016 3026 3034 3039 3046 3048 3048 3052 3055 3059 3062 3066 3068 3071 3072 3073 3075 3076 3077 3078 3080 3080 3079 3080 3078 3083 3083 3083 3083 3083 3083 3083 3084
2905 2919 2933 2939 2941 2952 2954 2971 2980 2990 2997 3005 3014 3020 3027 3035 3042 3044 3044 3048 3051 3053 3056 3060 3062 3065 3067 3068 3069 3068 3070 3072 3074 3074 3075 3073 3074 3075 3075 3076 3077 3077 3077 3078 3078